BEIJING 1 1 28890U 05043A 25259.31215700 .00000344 00000+0 76060-4 0 9994 2 28890 98.2554 26.6708 0015740 61.3395 298.9387 14.63238207 60597 HUANJING 1A (HJ-1A) 1 33320U 08041A 25259.26327206 .00001380 00000+0 17567-3 0 9995 2 33320 97.6481 251.2586 0018220 322.1107 37.8824 14.82981349917790 HUANJING 1B (HJ-1B) 1 33321U 08041B 25259.25752278 .00001204 00000+0 15464-3 0 9995 2 33321 97.6356 255.1651 0037061 4.9869 355.1707 14.82471297917817 YAOGAN-4 1 33446U 08061A 25259.26433891 .00001204 00000+0 15720-3 0 9998 2 33446 97.9058 190.3130 0013096 240.2065 119.7846 14.82284144905070 DEIMOS-1 1 35681U 09041A 25259.32998301 .00000655 00000+0 10503-3 0 9992 2 35681 97.7107 64.0397 0001853 45.8269 314.3093 14.74735581866510 UK-DMC 2 1 35683U 09041C 25259.29656865 .00000902 00000+0 14031-3 0 9991 2 35683 97.8460 36.7405 0001608 91.5965 268.5429 14.75318470866170 DMC3-FM1 1 40715U 15032A 25259.26037456 .00000627 00000+0 79151-4 0 9995 2 40715 97.6822 129.5975 0004343 224.9650 135.1214 14.85212114549243 DMC3-FM2 1 40716U 15032B 25259.28251146 .00000768 00000+0 95634-4 0 9992 2 40716 97.6881 131.0025 0004889 233.3190 126.7577 14.85203808549249 DMC3-FM3 1 40717U 15032C 25259.23713255 .00000679 00000+0 85276-4 0 9994 2 40717 97.6928 132.5330 0004106 232.4744 127.6098 14.85213692549244